Regional Weather Roundup
Issued by NWS

Home | Current Version | Previous Version | Text Only | Print | Product List | Glossary On
Versions: 1 2 3 4 5 6 7 8 9 10 11 12 13 14 15 16 17 18 19 20 21 22 23 24 25 26 27 28 29 30 31 32 33 34 35 36 37 38 39 40 41 42 43 44 45 46 47 48 49 50
000
ASUS44 KLIX 291311
RWRLA
LOUISIANA WEATHER ROUNDUP
NATIONAL WEATHER SERVICE NEW ORLEANS LA
800 AM CDT WED JUL 29 2015

NOTE: "FAIR" INDICATES FEW OR NO CLOUDS BELOW 12,000 FEET WITH NO
      SIGNIFICANT WEATHER AND/OR OBSTRUCTIONS TO VISIBILITY.
      SKY/WX - SKY CONDITION AND SIGNIFICANT WEATHER.
      TMP - AIR TEMPERATURE.    DP   - DEWPOINT TEMPERATURE.
      RH  - RELATIVE HUMIDITY.  PRES - PRESSURE.
      HX  - HEAT INDEX.         WCI  - WIND CHILL INDEX.

*  THESE STATIONS ARE NOT NWS OR FAA STATIONS AND ARE NOT UNDER
   NWS QUALITY CONTROL.

LAZ040-048-061>063-065-066-069-291400-
SOUTHEAST LOUISIANA

CITY           SKY/WX    TMP DP  RH WIND       PRES   REMARKS
N.O. AUDUBON     N/A     84  78  84 MISG        N/A  HX  95
N.O. INTL ARPT PTSUNNY   84  76  76 NW8       30.03R
N.O. LAKEFRONT PTSUNNY   89  77  67 NW18      30.03R HX 101
N.O. DOWNTOWN* PTSUNNY   84  77  79 CALM      30.04R
RESERVE*       FAIR      82  76  83 CALM      30.04R
SLIDELL        MOSUNNY   82  78  88 VRB3      30.03R
BATON ROUGE    SUNNY     82  76  81 NW7       30.04R
BOOTHVILLE     CLOUDY    84  76  76 NW7       30.03R
BELLE CHASSE   PTSUNNY   83  77  82 NW5       30.03R
BOGALUSA*        N/A     80  74  81 CALM      30.04R
GALLIANO*      NOT AVBL
NEW ROADS*     FAIR     N/A N/A N/A NW5       30.05R
GONZALES*      FAIR      82  78  90 NW6       30.04R
HAMMOND*       SUNNY     82  73  74 NW7       30.05R
HOUMA*         SUNNY     81  77  89 NW6       30.04R
PORT FOURCHON* SUNNY     84  75  74 N7        30.03R

$$

LAZ041-044-053-054-291400-
SOUTHWEST LOUISIANA

CITY           SKY/WX    TMP DP  RH WIND       PRES   REMARKS
LAKE CHARLES   SUNNY     82  77  84 N5        30.04R
LAFAYETTE      SUNNY     83  76  79 N9        30.05R
PATTERSON      SUNNY     82  75  78 N8        30.05R
SALT POINT       N/A     83  77  82 N5        30.02R
NEW IBERIA     SUNNY     82  77  84 N6        30.05R
CHENAULT AIRPK SUNNY     81  77  89 CALM      30.05R

$$

LAZ027-028-291400-
CENTRAL LOUISIANA

CITY           SKY/WX    TMP DP  RH WIND       PRES   REMARKS
FORT POLK      SUNNY     80  76  88 NW7       30.05R
ALEXANDRIA INT SUNNY     79  76  90 CALM      30.04R
ALEXANDRIA     SUNNY     83  75  77 W5        30.06R

$$

LAZ001-002-291400-
NORTHWEST LOUISIANA

CITY           SKY/WX    TMP DP  RH WIND       PRES   REMARKS
SHREVEPORT     SUNNY     81  73  76 SW3       30.04R
BARKSDALE AFB  SUNNY     83  72  69 W3        30.05R
DTN SHREVEPORT SUNNY     83  72  69 W3        30.04S

$$

LAZ014-016-291400-
NORTHEAST LOUISIANA

CITY           SKY/WX    TMP DP  RH WIND       PRES   REMARKS
MONROE         SUNNY     83  74  74 NW8       30.06R
TALLULAH       CLOUDY    81  75  82 CALM      30.06R

$$



USA.gov is the U.S. government's official web portal to all federal, state and local government web resources and services.